EZS36AF LKPR-LSGG

Flight info

Callsign EZS36AF
Flight time 1h 14m
Altitude 38000
Route BALTU DCT DONAD DCT OKG L984 KULOK Z715 ANELA N869 NATOR DCT LUTIX DCT BENOT
Aircraft A320/M-SDE3FGHIRWY/LB1

Departure

Time 2026-05-05 18:23
Airport Václav Havel Airport Prague (LKPR)

Arrival

Time 2026-05-05 19:38
Airport Geneva International Airport (LSGG)
Time Latitude Longitude Altitude Speed Heading
2026-05-05 17:38 50.10465 14.26534 1178 ft 0 kts 34°
2026-05-05 18:13 50.10462 14.26532 1178 ft 3 kts 34°
2026-05-05 18:14 50.10443 14.26512 1174 ft 2 kts 34°
2026-05-05 18:14 50.10422 14.26501 1175 ft 4 kts 334°
2026-05-05 18:14 50.10404 14.26526 1175 ft 3 kts 304°
2026-05-05 18:14 50.10394 14.26548 1178 ft 1 kts 304°
2026-05-05 18:17 50.10395 14.26545 1177 ft 2 kts 304°
2026-05-05 18:18 50.10412 14.26513 1175 ft 4 kts 316°
2026-05-05 18:18 50.10435 14.26473 1175 ft 7 kts 303°
2026-05-05 18:18 50.10471 14.26388 1176 ft 10 kts 303°
2026-05-05 18:18 50.10505 14.26310 1175 ft 8 kts 305°
2026-05-05 18:19 50.10535 14.26234 1173 ft 8 kts 289°
2026-05-05 18:19 50.10539 14.26153 1177 ft 7 kts 262°
2026-05-05 18:19 50.10529 14.26072 1176 ft 10 kts 258°
2026-05-05 18:19 50.10516 14.25983 1184 ft 6 kts 258°
2026-05-05 18:20 50.10537 14.25894 1183 ft 10 kts 301°
2026-05-05 18:20 50.10573 14.25809 1183 ft 9 kts 304°
2026-05-05 18:20 50.10604 14.25732 1182 ft 9 kts 298°
2026-05-05 18:20 50.10637 14.25638 1177 ft 11 kts 298°
2026-05-05 18:21 50.10618 14.25533 1177 ft 10 kts 232°
2026-05-05 18:21 50.10593 14.25432 1176 ft 10 kts 258°
2026-05-05 18:21 50.10575 14.25284 1170 ft 16 kts 260°
2026-05-05 18:21 50.10542 14.25137 1170 ft 10 kts 222°
2026-05-05 18:22 50.10506 14.25144 1170 ft 4 kts 128°
2026-05-05 18:22 50.10486 14.25184 1171 ft 9 kts 129°
2026-05-05 18:22 50.10352 14.25463 1182 ft 65 kts 127°
2026-05-05 18:22 50.09949 14.26298 1203 ft 125 kts 127°
2026-05-05 18:23 50.09342 14.27550 1427 ft 153 kts 126°
2026-05-05 18:23 50.08704 14.28866 2151 ft 152 kts 123°
2026-05-05 18:23 50.08070 14.30208 2764 ft 155 kts 123°
2026-05-05 18:23 50.07435 14.31573 3389 ft 157 kts 124°
2026-05-05 18:24 50.06776 14.32921 3990 ft 156 kts 125°
2026-05-05 18:24 50.06121 14.34260 4589 ft 157 kts 126°
2026-05-05 18:24 50.05425 14.35709 4895 ft 178 kts 126°
2026-05-05 18:24 50.04654 14.37327 5234 ft 195 kts 127°
2026-05-05 18:25 50.03792 14.39102 5498 ft 218 kts 127°
2026-05-05 18:25 50.03160 14.40394 5691 ft 234 kts 128°
2026-05-05 18:25 50.01823 14.43081 6742 ft 236 kts 129°
2026-05-05 18:25 50.00819 14.45165 7428 ft 245 kts 123°
2026-05-05 18:26 49.99988 14.47517 8131 ft 251 kts 128°
2026-05-05 18:26 49.98562 14.49124 8595 ft 264 kts 167°
2026-05-05 18:26 49.96751 14.48960 9408 ft 259 kts 201°
2026-05-05 18:26 49.95297 14.47451 10493 ft 251 kts 228°
2026-05-05 18:27 49.94486 14.45060 11292 ft 256 kts 256°
2026-05-05 18:27 49.94430 14.42240 11830 ft 273 kts 272°
2026-05-05 18:27 49.94660 14.39187 12163 ft 293 kts 275°
2026-05-05 18:27 49.94940 14.35966 12541 ft 312 kts 275°
2026-05-05 18:28 49.95552 14.28873 13300 ft 343 kts 275°
2026-05-05 18:28 49.95871 14.25172 13936 ft 348 kts 275°
2026-05-05 18:28 49.96193 14.21427 14591 ft 351 kts 275°
2026-05-05 18:29 49.96520 14.17653 15251 ft 354 kts 275°
2026-05-05 18:29 49.96843 14.13852 15651 ft 356 kts 274°
2026-05-05 18:29 49.97119 14.10010 16294 ft 358 kts 273°
2026-05-05 18:29 49.97364 14.06149 16970 ft 361 kts 272°
2026-05-05 18:30 49.97548 14.03010 17511 ft 362 kts 272°
2026-05-05 18:30 49.97774 13.99097 18156 ft 365 kts 272°
2026-05-05 18:30 49.98004 13.95160 18692 ft 368 kts 272°
2026-05-05 18:30 49.98241 13.91188 19246 ft 371 kts 272°
2026-05-05 18:31 49.98486 13.87180 19796 ft 373 kts 272°
2026-05-05 18:31 49.98734 13.83149 20333 ft 376 kts 272°
2026-05-05 18:31 49.98982 13.79085 20854 ft 379 kts 272°
2026-05-05 18:31 49.99230 13.74991 21374 ft 382 kts 272°
2026-05-05 18:32 49.99479 13.70868 21882 ft 385 kts 272°
2026-05-05 18:32 49.99728 13.66716 22393 ft 388 kts 272°
2026-05-05 18:32 49.99977 13.62532 22897 ft 390 kts 272°
2026-05-05 18:32 50.00223 13.58315 23383 ft 393 kts 272°
2026-05-05 18:33 50.00467 13.54071 23793 ft 396 kts 272°
2026-05-05 18:33 50.00714 13.49798 24216 ft 398 kts 272°
2026-05-05 18:33 50.00963 13.45501 24630 ft 400 kts 272°
2026-05-05 18:33 50.01211 13.41185 25038 ft 402 kts 272°
2026-05-05 18:34 50.01459 13.36845 25442 ft 404 kts 271°
2026-05-05 18:34 50.01706 13.32482 25843 ft 406 kts 272°
2026-05-05 18:34 50.01955 13.28092 26241 ft 408 kts 271°
2026-05-05 18:34 50.02203 13.23688 26634 ft 410 kts 271°
2026-05-05 18:35 50.02450 13.19260 27008 ft 412 kts 271°
2026-05-05 18:35 50.02694 13.14802 27378 ft 415 kts 271°
2026-05-05 18:35 50.02938 13.10316 27743 ft 417 kts 271°
2026-05-05 18:35 50.03182 13.05805 28107 ft 419 kts 271°
2026-05-05 18:36 50.03426 13.01273 28456 ft 422 kts 271°
2026-05-05 18:36 50.03669 12.96718 28808 ft 424 kts 271°
2026-05-05 18:36 50.03912 12.92118 29149 ft 427 kts 271°
2026-05-05 18:36 50.04155 12.87508 29487 ft 429 kts 271°
2026-05-05 18:37 50.04395 12.82866 29814 ft 432 kts 271°
2026-05-05 18:37 50.04635 12.78198 30094 ft 434 kts 271°
2026-05-05 18:37 50.04874 12.73498 30359 ft 436 kts 271°
2026-05-05 18:37 50.05112 12.68790 30621 ft 438 kts 271°
2026-05-05 18:38 50.05352 12.64050 30872 ft 440 kts 271°
2026-05-05 18:38 50.05593 12.59296 31121 ft 442 kts 271°
2026-05-05 18:38 50.05832 12.54521 31451 ft 442 kts 271°
2026-05-05 18:38 50.05987 12.51362 31695 ft 442 kts 271°
2026-05-05 18:39 50.05923 12.46625 32048 ft 436 kts 258°
2026-05-05 18:39 50.05099 12.42128 32381 ft 431 kts 245°
2026-05-05 18:39 50.03926 12.37830 32697 ft 431 kts 244°
2026-05-05 18:39 50.02739 12.33550 33044 ft 431 kts 244°
2026-05-05 18:40 50.01543 12.29277 33393 ft 431 kts 244°
2026-05-05 18:40 50.00344 12.25014 33744 ft 430 kts 244°
2026-05-05 18:40 49.99147 12.20754 34065 ft 430 kts 244°
2026-05-05 18:40 49.97954 12.16505 34373 ft 429 kts 244°
2026-05-05 18:41 49.96765 12.12264 34693 ft 428 kts 244°
2026-05-05 18:41 49.95583 12.08031 34994 ft 427 kts 244°
2026-05-05 18:41 49.94402 12.03812 35293 ft 426 kts 244°
2026-05-05 18:41 49.93224 11.99608 35586 ft 424 kts 244°
2026-05-05 18:42 49.92045 11.95413 35871 ft 423 kts 244°
2026-05-05 18:42 49.90864 11.91234 36165 ft 422 kts 244°
2026-05-05 18:42 49.89682 11.87074 36448 ft 421 kts 244°
2026-05-05 18:42 49.88501 11.82928 36718 ft 420 kts 244°
2026-05-05 18:43 49.87321 11.78789 36958 ft 419 kts 244°
2026-05-05 18:43 49.86146 11.74662 37217 ft 418 kts 244°
2026-05-05 18:43 49.84972 11.70537 37456 ft 417 kts 244°
2026-05-05 18:43 49.83801 11.66429 37678 ft 417 kts 244°
2026-05-05 18:44 49.82625 11.62317 37790 ft 417 kts 244°
2026-05-05 18:44 49.81450 11.58219 37790 ft 416 kts 244°
2026-05-05 18:44 49.79100 11.50035 37795 ft 416 kts 244°
2026-05-05 18:45 49.76756 11.41892 37805 ft 416 kts 244°
2026-05-05 18:45 49.74402 11.33731 37814 ft 416 kts 244°
2026-05-05 18:46 49.72030 11.25579 37827 ft 416 kts 243°
2026-05-05 18:46 49.69649 11.17421 37841 ft 416 kts 243°
2026-05-05 18:47 49.67257 11.09272 37851 ft 416 kts 242°
2026-05-05 18:47 49.64055 11.01948 37853 ft 411 kts 224°
2026-05-05 18:48 49.60065 10.95622 37851 ft 411 kts 224°
2026-05-05 18:48 49.56086 10.89293 37849 ft 411 kts 225°
2026-05-05 18:49 49.52101 10.82981 37853 ft 411 kts 224°
2026-05-05 18:49 49.48107 10.76674 37854 ft 411 kts 224°
2026-05-05 18:50 49.44116 10.70381 37858 ft 411 kts 224°
2026-05-05 18:50 49.40127 10.64102 37857 ft 411 kts 225°
2026-05-05 18:51 49.36187 10.57744 37856 ft 411 kts 225°
2026-05-05 18:51 49.32246 10.51413 37855 ft 410 kts 224°
2026-05-05 18:52 49.28212 10.45246 37852 ft 410 kts 223°
2026-05-05 18:52 49.24145 10.39125 37852 ft 410 kts 223°
2026-05-05 18:53 49.20117 10.32958 37857 ft 410 kts 224°
2026-05-05 18:53 49.16122 10.26729 37860 ft 410 kts 224°
2026-05-05 18:54 49.12351 10.20182 38064 ft 412 kts 230°
2026-05-05 18:54 49.10559 10.16765 38202 ft 412 kts 230°
2026-05-05 18:54 49.08766 10.13367 38342 ft 412 kts 229°
2026-05-05 18:55 49.06967 10.09968 38481 ft 411 kts 229°
2026-05-05 18:55 49.05168 10.06571 38600 ft 411 kts 230°
2026-05-05 18:55 49.03374 10.03182 38726 ft 411 kts 229°
2026-05-05 18:55 49.01595 9.99828 38830 ft 411 kts 229°
2026-05-05 18:56 48.97995 9.93051 38859 ft 411 kts 229°
2026-05-05 18:56 48.94392 9.86277 38863 ft 411 kts 229°
2026-05-05 18:57 48.90788 9.79523 38860 ft 411 kts 229°
2026-05-05 18:57 48.87173 9.72790 38857 ft 411 kts 229°
2026-05-05 18:58 48.83558 9.66052 38851 ft 412 kts 229°
2026-05-05 18:58 48.79941 9.59308 38844 ft 412 kts 229°
2026-05-05 18:59 48.76314 9.52576 38849 ft 413 kts 229°
2026-05-05 18:59 48.72646 9.45800 38852 ft 413 kts 229°
2026-05-05 19:00 48.69017 9.39117 38851 ft 413 kts 229°
2026-05-05 19:00 48.65370 9.32401 38853 ft 413 kts 229°
2026-05-05 19:01 48.61711 9.25683 38851 ft 414 kts 230°
2026-05-05 19:01 48.58265 9.18709 38855 ft 415 kts 233°
2026-05-05 19:02 48.54969 9.11487 38861 ft 415 kts 234°
2026-05-05 19:02 48.51677 9.04332 38866 ft 415 kts 233°
2026-05-05 19:03 48.48345 8.97288 38865 ft 415 kts 232°
2026-05-05 19:03 48.44968 8.90227 38875 ft 415 kts 232°
2026-05-05 19:04 48.41592 8.83173 38878 ft 415 kts 232°
2026-05-05 19:04 48.38222 8.76122 38880 ft 415 kts 232°
2026-05-05 19:05 48.34851 8.69084 38879 ft 415 kts 232°
2026-05-05 19:05 48.31453 8.62002 38884 ft 415 kts 232°
2026-05-05 19:06 48.28070 8.54987 38883 ft 415 kts 232°
2026-05-05 19:06 48.24684 8.47968 38884 ft 415 kts 232°
2026-05-05 19:07 48.21289 8.40956 38886 ft 415 kts 232°
2026-05-05 19:07 48.17837 8.34018 38883 ft 414 kts 226°
2026-05-05 19:08 48.13389 8.28625 38877 ft 413 kts 212°
2026-05-05 19:08 48.08557 8.23977 38878 ft 413 kts 212°
2026-05-05 19:09 48.03721 8.19307 38883 ft 413 kts 213°
2026-05-05 19:09 47.98915 8.14681 38886 ft 414 kts 212°
2026-05-05 19:10 47.94069 8.10042 38888 ft 414 kts 212°
2026-05-05 19:10 47.89229 8.05414 38678 ft 424 kts 212°
2026-05-05 19:11 47.86724 8.03026 38439 ft 429 kts 212°
2026-05-05 19:11 47.84210 8.00632 38163 ft 429 kts 213°
2026-05-05 19:11 47.81706 7.98244 37890 ft 426 kts 213°
2026-05-05 19:11 47.79215 7.95870 37616 ft 424 kts 213°
2026-05-05 19:12 47.76741 7.93516 37278 ft 421 kts 213°
2026-05-05 19:12 47.74244 7.91143 36643 ft 420 kts 213°
2026-05-05 19:12 47.71819 7.88837 36073 ft 418 kts 213°
2026-05-05 19:12 47.69381 7.86525 35603 ft 413 kts 213°
2026-05-05 19:13 47.66970 7.84243 35105 ft 410 kts 213°
2026-05-05 19:13 47.64577 7.81983 34632 ft 406 kts 213°
2026-05-05 19:13 47.62204 7.79742 34141 ft 403 kts 213°
2026-05-05 19:13 47.59848 7.77520 33616 ft 400 kts 213°
2026-05-05 19:14 47.57512 7.75321 33122 ft 395 kts 213°
2026-05-05 19:14 47.55202 7.73149 32655 ft 391 kts 213°
2026-05-05 19:14 47.52921 7.71007 32191 ft 386 kts 213°
2026-05-05 19:14 47.50664 7.68890 31744 ft 382 kts 213°
2026-05-05 19:15 47.48405 7.66772 31281 ft 377 kts 213°
2026-05-05 19:15 47.46946 7.65404 30997 ft 374 kts 213°
2026-05-05 19:15 47.44055 7.62694 30421 ft 369 kts 212°
2026-05-05 19:15 47.42595 7.61327 30135 ft 366 kts 213°
2026-05-05 19:16 47.40459 7.59332 29699 ft 362 kts 212°
2026-05-05 19:16 47.38348 7.57363 29279 ft 356 kts 212°
2026-05-05 19:16 47.36273 7.55424 28898 ft 350 kts 212°
2026-05-05 19:16 47.34232 7.53514 28514 ft 345 kts 212°
2026-05-05 19:17 47.32217 7.51633 28134 ft 340 kts 212°
2026-05-05 19:17 47.30235 7.49787 27758 ft 335 kts 212°
2026-05-05 19:17 47.28274 7.47965 27393 ft 330 kts 212°
2026-05-05 19:17 47.26341 7.46171 27012 ft 327 kts 212°
2026-05-05 19:18 47.24430 7.44399 26641 ft 323 kts 212°
2026-05-05 19:18 47.22541 7.42652 26273 ft 319 kts 212°
2026-05-05 19:18 47.20667 7.40920 25886 ft 317 kts 212°
2026-05-05 19:18 47.18812 7.39204 25514 ft 314 kts 212°
2026-05-05 19:19 47.17007 7.37412 25101 ft 313 kts 219°
2026-05-05 19:19 47.15468 7.35164 24656 ft 313 kts 230°
2026-05-05 19:19 47.14120 7.32649 24212 ft 313 kts 230°
2026-05-05 19:19 47.12765 7.30140 23765 ft 314 kts 230°
2026-05-05 19:20 47.11404 7.27634 23284 ft 314 kts 230°
2026-05-05 19:20 47.10038 7.25124 22800 ft 313 kts 230°
2026-05-05 19:20 47.08680 7.22630 22361 ft 312 kts 230°
2026-05-05 19:20 47.07328 7.20149 21928 ft 311 kts 230°
2026-05-05 19:21 47.05983 7.17681 21500 ft 310 kts 230°
2026-05-05 19:21 47.04639 7.15214 21076 ft 309 kts 230°
2026-05-05 19:21 47.03291 7.12739 20901 ft 313 kts 230°
2026-05-05 19:21 47.01925 7.10236 20906 ft 316 kts 230°
2026-05-05 19:22 47.00552 7.07722 20671 ft 317 kts 230°
2026-05-05 19:22 46.99143 7.05144 19799 ft 329 kts 230°
2026-05-05 19:22 46.97702 7.02514 19251 ft 332 kts 230°
2026-05-05 19:22 46.96260 6.99887 18801 ft 331 kts 230°
2026-05-05 19:23 46.94822 6.97273 18380 ft 329 kts 231°
2026-05-05 19:23 46.93391 6.94667 17808 ft 330 kts 231°
2026-05-05 19:23 46.91886 6.92104 17138 ft 333 kts 223°
2026-05-05 19:23 46.90038 6.90068 16571 ft 334 kts 210°
2026-05-05 19:24 46.87926 6.88688 16141 ft 331 kts 204°
2026-05-05 19:24 46.85800 6.87411 15713 ft 329 kts 204°
2026-05-05 19:24 46.83687 6.86141 15273 ft 326 kts 204°
2026-05-05 19:24 46.81593 6.84883 14797 ft 325 kts 204°
2026-05-05 19:25 46.79509 6.83630 14399 ft 322 kts 204°
2026-05-05 19:25 46.77436 6.82382 13964 ft 321 kts 204°
2026-05-05 19:25 46.75385 6.81150 13669 ft 315 kts 204°
2026-05-05 19:25 46.73406 6.79963 13511 ft 299 kts 204°
2026-05-05 19:26 46.71522 6.78832 13076 ft 289 kts 204°
2026-05-05 19:26 46.69677 6.77728 12515 ft 284 kts 204°
2026-05-05 19:26 46.67860 6.76646 11969 ft 280 kts 204°
2026-05-05 19:26 46.66121 6.75424 11525 ft 277 kts 214°
2026-05-05 19:27 46.64648 6.73627 11125 ft 276 kts 227°
2026-05-05 19:27 46.63382 6.71539 10754 ft 275 kts 228°
2026-05-05 19:27 46.62118 6.69474 10402 ft 272 kts 227°
2026-05-05 19:27 46.60869 6.67443 9973 ft 267 kts 227°
2026-05-05 19:28 46.59639 6.65453 9549 ft 261 kts 227°
2026-05-05 19:28 46.58441 6.63516 9152 ft 254 kts 227°
2026-05-05 19:28 46.57272 6.61627 8775 ft 249 kts 227°
2026-05-05 19:28 46.56119 6.59763 8403 ft 248 kts 227°
2026-05-05 19:29 46.54966 6.57899 8028 ft 248 kts 227°
2026-05-05 19:29 46.53804 6.56021 7634 ft 252 kts 227°
2026-05-05 19:29 46.52632 6.54128 7351 ft 248 kts 227°
2026-05-05 19:29 46.51502 6.52302 7218 ft 238 kts 227°
2026-05-05 19:30 46.50419 6.50553 7097 ft 228 kts 227°
2026-05-05 19:30 46.49383 6.48879 6973 ft 218 kts 227°
2026-05-05 19:30 46.48393 6.47277 6844 ft 209 kts 227°
2026-05-05 19:30 46.47443 6.45743 6735 ft 200 kts 227°
2026-05-05 19:31 46.46522 6.44277 6604 ft 193 kts 224°
2026-05-05 19:31 46.45562 6.42964 6434 ft 188 kts 224°
2026-05-05 19:31 46.44634 6.41644 6180 ft 187 kts 224°
2026-05-05 19:31 46.43725 6.40313 6021 ft 185 kts 225°
2026-05-05 19:32 46.42821 6.38975 6000 ft 186 kts 225°
2026-05-05 19:32 46.41927 6.37650 5987 ft 187 kts 225°
2026-05-05 19:32 46.41004 6.36281 5835 ft 187 kts 225°
2026-05-05 19:32 46.40096 6.34934 5612 ft 186 kts 225°
2026-05-05 19:33 46.39192 6.33595 5369 ft 186 kts 225°
2026-05-05 19:33 46.38285 6.32252 5124 ft 186 kts 225°
2026-05-05 19:33 46.37379 6.30911 4884 ft 186 kts 225°
2026-05-05 19:33 46.36475 6.29573 4651 ft 184 kts 225°
2026-05-05 19:34 46.35599 6.28277 4393 ft 177 kts 225°
2026-05-05 19:34 46.34751 6.27024 4146 ft 171 kts 225°
2026-05-05 19:34 46.33946 6.25834 3915 ft 160 kts 225°
2026-05-05 19:35 46.32420 6.23580 3505 ft 156 kts 224°
2026-05-05 19:35 46.31660 6.22460 3302 ft 155 kts 224°
2026-05-05 19:35 46.30905 6.21346 3100 ft 155 kts 224°
2026-05-05 19:35 46.30147 6.20229 2890 ft 155 kts 224°
2026-05-05 19:36 46.29400 6.19128 2660 ft 150 kts 224°
2026-05-05 19:36 46.28677 6.18063 2421 ft 147 kts 223°
2026-05-05 19:36 46.27961 6.17012 2222 ft 148 kts 225°
2026-05-05 19:36 46.27236 6.15939 2041 ft 151 kts 225°
2026-05-05 19:37 46.26495 6.14861 1856 ft 152 kts 225°
2026-05-05 19:37 46.25755 6.13768 1644 ft 152 kts 225°
2026-05-05 19:37 46.25019 6.12687 1436 ft 149 kts 224°
2026-05-05 19:37 46.24355 6.11704 1372 ft 107 kts 225°
2026-05-05 19:38 46.24041 6.11239 1376 ft 35 kts 225°
2026-05-05 19:38 46.23879 6.10997 1377 ft 32 kts 225°
2026-05-05 19:38 46.23755 6.10838 1381 ft 20 kts 215°
2026-05-05 19:38 46.23639 6.10752 1382 ft 15 kts 200°
2026-05-05 19:39 46.23568 6.10719 1381 ft 6 kts 195°
2026-05-05 19:39 46.23564 6.10718 1382 ft 0 kts 194°
2026-05-05 19:39 46.23546 6.10712 1384 ft 8 kts 194°
2026-05-05 19:40 46.23495 6.10692 1389 ft 7 kts 195°
2026-05-05 19:40 46.23450 6.10677 1389 ft 6 kts 187°
2026-05-05 19:40 46.23417 6.10705 1401 ft 5 kts 135°
2026-05-05 19:40 46.23396 6.10736 1397 ft 3 kts 135°
2026-05-05 19:41 46.23384 6.10753 1394 ft 2 kts 135°
2026-05-05 19:41 46.23365 6.10781 1396 ft 6 kts 136°
2026-05-05 19:41 46.23333 6.10804 1395 ft 4 kts 181°
2026-05-05 19:41 46.23300 6.10794 1398 ft 8 kts 193°
2026-05-05 19:42 46.23233 6.10757 1404 ft 11 kts 221°
2026-05-05 19:42 46.23195 6.10705 1398 ft 3 kts 223°
2026-05-05 19:42 46.23182 6.10707 1401 ft 2 kts 158°
2026-05-05 19:42 46.23167 6.10725 1402 ft 3 kts 137°
2026-05-05 19:43 46.23156 6.10741 1397 ft 0 kts 136°